FW0099 Weather Reports


Display with metric or nautical units.
time (UTC)temp
F
wind
direction
speed
MPH
gust
MPH
rain 1hr
in
rain 24hr
in
rain mn
in
humidity
%
barometer
mb
20260510061215 50 325 1.0 4.0 0.00 0.00 0.00 81 1013.7
20260510060216 49 320 2.0 8.0 0.00 0.00 0.00 82 1013.7
20260510055216 49 321 1.0 5.0 0.00 0.00 0.00 83 1013.6
20260510054235 49 0.0 0.0 0.00 0.00 0.00 84 1013.7
20260510053236 49 0.0 2.0 0.00 0.00 0.00 84 1013.7
20260510052217 49 9 0.0 2.0 0.00 0.00 0.00 86 1013.7
20260510051235 48 15 0.0 2.0 0.00 0.00 0.00 86 1013.7
20260510050235 48 340 0.0 2.0 0.00 0.00 0.00 87 1013.7
20260510045215 48 0.0 2.0 0.00 0.00 0.00 87 1013.6
20260510044215 48 324 1.0 2.0 0.00 0.00 0.00 88 1013.7
20260510043255 47 346 0.0 2.0 0.00 0.00 0.00 88 1013.6
20260510042215 47 331 0.0 3.0 0.00 0.00 0.00 88 1013.7
20260510041215 47 0.0 0.0 0.00 0.00 0.00 88 1013.6
20260510040215 47 0.0 0.0 0.00 0.00 0.00 88 1013.6
20260510035215 47 0.0 0.0 0.00 0.00 0.00 88 1013.6
20260510034215 46 0.0 2.0 0.00 0.00 0.00 88 1013.7
20260510033215 46 0.0 0.0 0.00 0.00 0.00 88 1013.7
20260510032215 46 344 0.0 2.0 0.00 0.00 0.00 88 1013.7
20260510031215 46 0.0 0.0 0.00 0.00 0.00 88 1013.7
20260510030215 46 0.0 0.0 0.00 0.00 0.00 88 1013.8
20260510025215 45 0.0 0.0 0.00 0.00 0.00 87 1013.8
20260510024215 46 0.0 0.0 0.00 0.00 0.00 87 1013.8
20260510023216 46 0.0 0.0 0.00 0.00 0.00 87 1013.8
20260510022215 46 0.0 0.0 0.00 0.00 0.00 86 1013.9
20260510021215 46 0.0 0.0 0.00 0.00 0.00 86 1013.9
20260510020215 46 0.0 0.0 0.00 0.00 0.00 86 1014.0
20260510015215 47 0.0 0.0 0.00 0.00 0.00 87 1013.9
20260510014236 47 0.0 0.0 0.00 0.00 0.00 86 1014.2
20260510013215 47 0.0 0.0 0.00 0.00 0.00 86 1014.2
20260510012255 47 0.0 0.0 0.00 0.00 0.00 86 1014.1
20260510011235 47 0.0 0.0 0.00 0.00 0.00 86 1014.0
20260510010215 47 0.0 0.0 0.00 0.00 0.00 86 1014.1
20260510005215 47 0.0 0.0 0.00 0.00 0.00 86 1014.2
20260510004215 47 0.0 0.0 0.00 0.00 0.00 86 1014.3
20260510003215 47 0.0 0.0 0.00 0.00 0.00 86 1014.3
20260510002215 47 0.0 0.0 0.00 0.00 0.00 86 1014.4
20260510001215 47 0.0 0.0 0.00 0.00 0.00 86 1014.4
20260510000218 47 0.0 0.0 0.00 0.00 0.00 86 1014.5
20260509235237 47 0.0 0.0 0.00 0.00 0.00 86 1014.5
20260509234217 47 0.0 0.0 0.00 0.00 0.00 86 1014.6
20260509233217 47 0.0 0.0 0.00 0.00 0.00 86 1014.6
20260509232215 47 0.0 0.0 0.00 0.00 0.00 85 1014.6
20260509231217 47 0.0 0.0 0.00 0.00 0.00 85 1014.7
20260509230217 47 0.0 0.0 0.00 0.00 0.00 86 1014.7
20260509225217 47 0.0 0.0 0.00 0.00 0.00 85 1014.7
20260509224217 47 0.0 0.0 0.00 0.00 0.00 85 1014.8
20260509223217 47 0.0 0.0 0.00 0.00 0.00 85 1014.8
20260509222217 47 0.0 0.0 0.00 0.00 0.00 84 1014.8
20260509221217 47 0.0 0.0 0.00 0.00 0.00 83 1014.8
20260509220217 48 0.0 0.0 0.00 0.00 0.00 83 1014.8
20260509215235 48 0.0 0.0 0.00 0.00 0.00 82 1014.7
20260509214215 48 0.0 0.0 0.00 0.00 0.00 81 1014.8
20260509213235 49 0.0 0.0 0.00 0.00 0.00 81 1014.8
20260509212217 49 0.0 0.0 0.00 0.00 0.00 80 1014.8
20260509211217 50 0.0 0.0 0.00 0.00 0.00 80 1014.9
20260509210215 50 0.0 0.0 0.00 0.00 0.00 79 1014.8
20260509205217 50 0.0 0.0 0.00 0.00 0.00 77 1014.9
20260509204357 51 0.0 0.0 0.00 0.00 0.00 75 1015.0
20260509203217 51 0.0 0.0 0.00 0.00 0.00 74 1015.0
20260509202217 52 0.0 0.0 0.00 0.00 0.00 73 1014.9
20260509201217 52 0.0 0.0 0.00 0.00 0.00 72 1014.8
20260509200237 53 0.0 0.0 0.00 0.00 0.00 70 1014.9
20260509195217 54 0.0 0.0 0.00 0.00 0.00 68 1014.9
20260509194217 54 0.0 0.0 0.00 0.00 0.00 67 1014.8
20260509193217 55 0.0 0.0 0.00 0.00 0.00 64 1014.8
20260509192217 56 0.0 0.0 0.00 0.00 0.00 62 1014.7
20260509191217 57 0.0 0.0 0.00 0.00 0.00 61 1014.7
20260509190217 58 0.0 0.0 0.00 0.00 0.00 58 1014.8
20260509185217 59 0.0 0.0 0.00 0.00 0.00 56 1014.7
20260509184217 59 0.0 0.0 0.00 0.00 0.00 54 1014.6
20260509183216 60 0.0 0.0 0.00 0.00 0.00 54 1014.6
20260509182216 61 0.0 0.0 0.00 0.00 0.00 53 1014.4
20260509181216 61 0.0 0.0 0.00 0.00 0.00 53 1014.4
20260509180217 62 0.0 0.0 0.00 0.00 0.00 50 1014.2
20260509175237 62 0.0 0.0 0.00 0.00 0.00 49 1014.1
20260509174217 63 0.0 0.0 0.00 0.00 0.00 48 1014.2
20260509173217 63 0.0 0.0 0.00 0.00 0.00 47 1014.3
20260509172217 63 0.0 0.0 0.00 0.00 0.00 47 1014.2
20260509171216 64 332 2.0 4.0 0.00 0.00 0.00 47 1014.2
20260509170216 64 0.0 0.0 0.00 0.00 0.00 46 1014.2
20260509165217 64 51 0.0 3.0 0.00 0.00 0.00 45 1014.2
20260509164216 65 0.0 0.0 0.00 0.00 0.00 47 1014.3
20260509163256 65 0.0 0.0 0.00 0.00 0.00 45 1014.3
20260509162216 65 0.0 0.0 0.00 0.00 0.00 48 1014.3
20260509161237 65 0.0 0.0 0.00 0.00 0.00 45 1014.4
20260509160216 66 0.0 0.0 0.00 0.00 0.00 45 1014.4
20260509155217 66 0.0 0.0 0.00 0.00 0.00 41 1014.6
20260509154216 67 0.0 0.0 0.00 0.00 0.00 42 1014.6
20260509153216 67 62 0.0 2.0 0.00 0.00 0.00 45 1014.5
20260509152217 68 0.0 0.0 0.00 0.00 0.00 41 1014.6
20260509151216 68 0.0 0.0 0.00 0.00 0.00 41 1014.6
20260509150216 67 53 1.0 2.0 0.00 0.00 0.00 40 1014.7
20260509145216 67 0.0 0.0 0.00 0.00 0.00 37 1014.7
20260509144216 67 0.0 0.0 0.00 0.00 0.00 38 1014.7
20260509143216 68 304 2.0 3.0 0.00 0.00 0.00 36 1014.9
20260509142236 68 0.0 0.0 0.00 0.00 0.00 35 1015.0
20260509141216 69 55 0.0 3.0 0.00 0.00 0.00 36 1015.0
20260509140236 70 0.0 1.0 0.00 0.00 0.00 35 1015.0
20260509135236 70 0.0 0.0 0.00 0.00 0.00 38 1015.2
20260509134237 70 333 1.0 7.0 0.00 0.00 0.00 38 1015.3
20260509133216 70 327 5.0 9.0 0.00 0.00 0.00 35 1015.5
20260509132216 70 0.0 0.0 0.00 0.00 0.00 37 1015.7
20260509131216 69 0.0 0.0 0.00 0.00 0.00 41 1015.8
20260509130236 69 54 0.0 2.0 0.00 0.00 0.00 35 1015.9
20260509125217 69 0.0 0.0 0.00 0.00 0.00 37 1015.9
20260509124216 71 315 0.0 4.0 0.00 0.00 0.00 33 1016.0
20260509123216 72 0.0 0.0 0.00 0.00 0.00 35 1016.1
20260509122236 71 334 2.0 4.0 0.00 0.00 0.00 37 1016.2
20260509121216 72 340 0.0 6.0 0.00 0.00 0.00 32 1016.4
20260509120216 73 347 0.0 2.0 0.00 0.00 0.00 34 1016.4
20260509115216 72 327 2.0 4.0 0.00 0.00 0.00 33 1016.4
20260509114216 71 321 4.0 7.0 0.00 0.00 0.00 33 1016.6
20260509113216 70 63 0.0 2.0 0.00 0.00 0.00 33 1016.7
20260509112216 74 63 0.0 2.0 0.00 0.00 0.00 33 1016.8
20260509111216 75 76 0.0 3.0 0.00 0.00 0.00 28 1016.8
20260509110216 74 139 2.0 3.0 0.00 0.00 0.00 29 1016.9
20260509105216 74 75 0.0 2.0 0.00 0.00 0.00 34 1017.1
20260509104216 74 64 1.0 4.0 0.00 0.00 0.00 31 1017.2
20260509103216 73 49 0.0 4.0 0.00 0.00 0.00 37 1017.2
20260509102216 73 337 2.0 5.0 0.00 0.00 0.00 36 1017.3
20260509101216 72 24 0.0 3.0 0.00 0.00 0.00 37 1017.2
20260509100216 73 72 1.0 4.0 0.00 0.00 0.00 41 1017.4
20260509095216 72 57 0.0 2.0 0.00 0.00 0.00 38 1017.4
20260509094236 72 53 0.0 3.0 0.00 0.00 0.00 39 1017.4
20260509093236 72 60 0.0 3.0 0.00 0.00 0.00 41 1017.4
20260509092216 72 79 0.0 3.0 0.00 0.00 0.00 45 1017.5
20260509091216 72 76 0.0 2.0 0.00 0.00 0.00 45 1017.5
20260509090216 70 86 1.0 3.0 0.00 0.00 0.00 43 1017.6
20260509085216 69 84 0.0 2.0 0.00 0.00 0.00 47 1017.5
20260509084216 69 87 0.0 3.0 0.00 0.00 0.00 46 1017.7
20260509083216 68 0.0 0.0 0.00 0.00 0.00 52 1017.7
20260509082216 67 88 1.0 3.0 0.00 0.00 0.00 52 1017.7
20260509081216 65 60 0.0 2.0 0.00 0.00 0.00 55 1017.8
20260509080215 63 65 1.0 3.0 0.00 0.00 0.00 60 1017.8
20260509075216 61 90 0.0 1.0 0.00 0.00 0.00 62 1017.6
20260509074216 59 58 1.0 7.0 0.00 0.00 0.00 66 1017.6
20260509073216 57 0.0 0.0 0.00 0.00 0.00 75 1017.6
20260509072216 55 0.0 2.0 0.00 0.00 0.00 83 1017.7
20260509071215 53 63 2.0 4.0 0.00 0.00 0.00 88 1017.8
20260509070216 53 0.0 0.0 0.00 0.00 0.00 91 1017.8
20260509065216 50 0.0 0.0 0.00 0.00 0.00 91 1017.8
20260509064215 49 0.0 0.0 0.00 0.00 0.00 91 1017.7
20260509063215 48 0.0 0.0 0.00 0.00 0.00 90 1017.7
20260509062236 47 0.0 0.0 0.00 0.00 0.00 90 1017.6